McConnell AFB, KS

12:38 AM CDT on September 18, 2019 (GMT -0500)
McConnell Air Force Base

Weather History for KIAB - May, 2019

Change the Weather History Date:

Monday, May 27, 2019

  Actual Average Record
Temperature  
Mean Temperature 72 °F -  
Max Temperature 83 °F 77 °F 93 °F (2018)
Min Temperature 62 °F 57 °F 50 °F (2003)
Cooling Degree Days 8    
Growing Degree Days 22 (Base 50)    
Moisture  
Dew Point 65 °F    
Average Humidity 85    
Maximum Humidity 100    
Minimum Humidity 64    
Precipitation  
Precipitation 1.11 in - - ()
Sea Level Pressure  
Sea Level Pressure 29.81 in    
Wind  
Wind Speed 17 mph (SSE)    
Max Wind Speed 33 mph    
Max Gust Speed 50 mph    
Visibility 8 miles    
Events Rain , Thunderstorm    
Averages and records for this station are not official NWS values.
T = Trace of Precipitation, MM = Missing Value Source: NWS Daily Summary

Daily Weather History Graph

Daily Weather History Graph

Search for Another Location

Airport or City:

Astronomy

May. 27, 2019 Rise Set
Actual Time 6:11 AM CDT 8:41 PM CDT
Civil Twilight 5:41 AM CDT 9:11 PM CDT
Nautical Twilight 5:03 AM CDT 9:49 PM CDT
Astronomical Twilight 4:22 AM CDT 10:30 PM CDT
Moon 2:46 AM CDT (5/27) 2:04 PM CDT (5/27)
Length of Visible Light 15h 30m
Length of Day
14h 29m
Last Quarter, 40% of the Moon is Illuminated
May 27
Last Quarter
Jun 3
New
Jun 10
First Quarter
Jun 17
Full
Jun 25
Last Quarter

Hourly Weather History & Observations

Time (CDT) Temp. Heat Index Dew Point Humidity Pressure Visibility Wind Dir Wind Speed Gust Speed Precip Events Conditions
12:56 AM 72.1 °F - 66.9 °F 84% 29.84 in 10.0 mi SE 17.3 mph - N/A   Partly Cloudy
1:27 AM 73.4 °F - 66.2 °F 78% 29.85 in 10.0 mi SE 18.4 mph 25.3 mph N/A Rain Light Rain
1:30 AM 73.4 °F - 66.2 °F 78% 29.86 in 10.0 mi SE 19.6 mph 25.3 mph N/A Rain , Thunderstorm Light Thunderstorms and Rain
1:53 AM 71.6 °F - 68.0 °F 88% 29.89 in 10.0 mi South 23.0 mph 34.5 mph N/A Rain , Thunderstorm Light Thunderstorms and Rain
1:56 AM 71.6 °F - 67.1 °F 86% 29.95 in 9.0 mi SW 33.4 mph 46.0 mph 0.07 in Rain , Thunderstorm Light Thunderstorms and Rain
2:04 AM 64.4 °F - 60.8 °F 88% 29.93 in 1.1 mi SSW 13.8 mph 49.5 mph N/A Rain , Thunderstorm Heavy Thunderstorms and Rain
2:05 AM 64.4 °F - 60.8 °F 88% 29.93 in 0.6 mi SSW 13.8 mph 49.5 mph N/A Rain , Thunderstorm Heavy Thunderstorms and Rain
2:06 AM 62.6 °F - 60.8 °F 94% 29.93 in 0.9 mi SSW 12.7 mph 49.5 mph N/A Rain , Thunderstorm Heavy Thunderstorms and Rain
2:07 AM 62.6 °F - 60.8 °F 94% 29.93 in 0.9 mi SSW 11.5 mph 47.2 mph N/A Rain , Thunderstorm Heavy Thunderstorms and Rain
2:08 AM 62.6 °F - 60.8 °F 94% 29.93 in 1.1 mi SSW 11.5 mph 44.9 mph N/A Rain , Thunderstorm Heavy Thunderstorms and Rain
2:09 AM 62.6 °F - 60.8 °F 94% 29.93 in 1.4 mi SSW 13.8 mph - N/A Rain , Thunderstorm Heavy Thunderstorms and Rain
2:10 AM 62.6 °F - 60.8 °F 94% 29.93 in 1.6 mi South 16.1 mph 21.9 mph N/A Rain , Thunderstorm Heavy Thunderstorms and Rain
2:11 AM 62.6 °F - 60.8 °F 94% 29.93 in 2.0 mi South 17.3 mph 21.9 mph N/A Rain , Thunderstorm Heavy Thunderstorms and Rain
2:13 AM 62.6 °F - 60.8 °F 94% 29.93 in 3.0 mi South 15.0 mph 21.9 mph N/A Rain , Thunderstorm Heavy Thunderstorms and Rain
2:29 AM 62.6 °F - 60.8 °F 94% 29.91 in 7.0 mi South 17.3 mph - N/A Rain , Thunderstorm Light Rain
2:31 AM 62.6 °F - 60.8 °F 94% 29.91 in 7.0 mi South 13.8 mph - N/A Rain , Thunderstorm Light Thunderstorms and Rain
2:46 AM 62.6 °F - 60.8 °F 94% 29.88 in 10.0 mi South 11.5 mph - N/A Rain , Thunderstorm Light Rain
2:53 AM 62.6 °F - 60.8 °F 94% 29.87 in 10.0 mi South 9.2 mph - N/A Rain , Thunderstorm Thunderstorms and Rain
2:56 AM 62.4 °F - 60.3 °F 93% 29.86 in 10.0 mi South 8.1 mph - 0.69 in Rain , Thunderstorm Thunderstorms and Rain
3:08 AM 62.6 °F - 60.8 °F 94% 29.89 in 10.0 mi South 15.0 mph 20.7 mph N/A Rain Light Rain
3:15 AM 62.6 °F - 60.8 °F 94% 29.88 in 8.0 mi South 11.5 mph - N/A Rain , Thunderstorm Thunderstorms and Rain
3:37 AM 62.6 °F - 60.8 °F 94% 29.81 in 4.0 mi East 16.1 mph 19.6 mph N/A Rain , Thunderstorm Heavy Thunderstorms and Rain
3:55 AM 62.6 °F - 60.8 °F 94% 29.80 in 10.0 mi ESE 12.7 mph - N/A Rain , Thunderstorm Light Rain
3:56 AM 63.0 °F - 61.5 °F 95% 29.80 in 10.0 mi ESE 11.5 mph - 0.21 in Thunderstorm Mostly Cloudy
4:56 AM 63.3 °F - 61.0 °F 92% 29.81 in 10.0 mi ESE 8.1 mph - 0.00 in   Scattered Clouds
5:18 AM 62.6 °F - 60.8 °F 94% 29.81 in 10.0 mi East 9.2 mph - N/A Thunderstorm Thunderstorm
5:24 AM 62.6 °F - 60.8 °F 94% 29.81 in 10.0 mi East 9.2 mph - N/A Rain , Thunderstorm Light Thunderstorms and Rain
5:41 AM 62.6 °F - 62.6 °F 100% 29.79 in 10.0 mi East 12.7 mph - N/A Rain , Thunderstorm Light Rain
5:56 AM 63.7 °F - 62.4 °F 96% 29.80 in 10.0 mi SE 26.5 mph - 0.08 in Rain , Thunderstorm Light Rain
6:16 AM 66.2 °F - 64.4 °F 94% 29.71 in 10.0 mi ESE 31.1 mph 48.3 mph N/A Rain , Thunderstorm Light Rain
6:24 AM 66.2 °F - 64.4 °F 94% 29.73 in 10.0 mi ESE 23.0 mph 41.4 mph N/A Thunderstorm Scattered Clouds
6:50 AM 66.2 °F - 64.4 °F 94% 29.78 in 10.0 mi SSE 11.5 mph - N/A   Clear
6:56 AM 66.0 °F - 63.7 °F 92% 29.79 in 10.0 mi SSW 8.1 mph - 0.06 in   Clear
7:56 AM 67.1 °F - 64.4 °F 91% 29.81 in 10.0 mi SE 10.4 mph - N/A   Mostly Cloudy
8:56 AM 72.0 °F - 66.7 °F 84% 29.79 in 10.0 mi SE 19.6 mph 27.6 mph N/A   Partly Cloudy
9:56 AM 74.3 °F - 67.3 °F 79% 29.75 in 10.0 mi SSE 20.7 mph 31.1 mph N/A   Scattered Clouds
10:52 AM 75.2 °F - 68.0 °F 78% 29.77 in 10.0 mi South 21.9 mph 27.6 mph N/A   Overcast
10:56 AM 74.7 °F - 66.9 °F 77% 29.77 in 10.0 mi South 20.7 mph 29.9 mph N/A   Overcast
11:56 AM 75.6 °F - 68.2 °F 78% 29.77 in 10.0 mi South 16.1 mph - N/A   Overcast
12:56 PM 78.8 °F - 68.5 °F 71% 29.75 in 10.0 mi South 19.6 mph 24.2 mph N/A   Overcast
1:04 PM 78.8 °F - 69.8 °F 74% 29.75 in 10.0 mi South 20.7 mph 27.6 mph N/A   Overcast
1:55 PM 80.6 °F 83.9 °F 69.8 °F 70% 29.74 in 10.0 mi South 16.1 mph - N/A   Mostly Cloudy
1:56 PM 80.2 °F 83.2 °F 69.4 °F 69% 29.74 in 10.0 mi SSE 17.3 mph - N/A   Mostly Cloudy
1:59 PM 80.6 °F 83.9 °F 69.8 °F 70% 29.74 in 10.0 mi SSE 16.1 mph - N/A   Mostly Cloudy
2:56 PM 82.0 °F 85.5 °F 69.1 °F 65% 29.73 in 10.0 mi South 18.4 mph 26.5 mph N/A   Partly Cloudy
3:56 PM 83.3 °F 87.4 °F 70.2 °F 64% 29.72 in 10.0 mi SSE 15.0 mph 24.2 mph N/A   Partly Cloudy
4:56 PM 82.9 °F 87.2 °F 70.3 °F 66% 29.70 in 10.0 mi SSE 16.1 mph 24.2 mph N/A   Scattered Clouds
5:56 PM 82.0 °F 86.1 °F 70.3 °F 68% 29.68 in 10.0 mi SSE 20.7 mph 26.5 mph N/A   Scattered Clouds
6:56 PM 80.6 °F 84.1 °F 70.3 °F 71% 29.68 in 10.0 mi SSE 23.0 mph - N/A   Mostly Cloudy
7:17 PM 80.6 °F 83.9 °F 69.8 °F 70% 29.68 in 10.0 mi SE 21.9 mph 27.6 mph N/A   Mostly Cloudy
7:25 PM 80.6 °F 83.9 °F 69.8 °F 70% 29.68 in 10.0 mi SE 16.1 mph 26.5 mph N/A   Scattered Clouds
7:56 PM 77.9 °F - 68.5 °F 73% 29.68 in 10.0 mi SE 19.6 mph 27.6 mph N/A   Clear
8:56 PM 75.6 °F - 67.8 °F 77% 29.67 in 10.0 mi SE 18.4 mph 24.2 mph N/A   Clear
10:56 PM 73.9 °F - 66.9 °F 79% 29.68 in 10.0 mi SE 13.8 mph - N/A   Clear